[[{"header":{"parameterUnit":"m.s-1","parameterCategory":1,"la1":30.2991,"la2":30.254,"lo1":-89.0895,"lo2":-89.0444,"dy":0.0017,"dx":0.0017,"nx":28,"ny":28,"refTime":"2023-07-21T03:00:00:Z","depth":0,"parameterNumber":2,"parameterNumberName":"U-component_of_WINDS"},"data":[0,0,0,0,0,0,0,0,0,0,0,0,0,0,0,0,0,0,0,0,0,0,0,0,0,0,0,0,0,0,0,0,0,0,0,0,0,0,0,0,0,0,0,0,0,0,0,0,0,0,0,0,0,0,0,0,0,0,5.5457,5.5459,0,5.5628,5.563,5.5632,5.5568,5.5564,5.5561,5.5557,5.5734,5.5742,5.575,0,0,0,0,0,0,0,0,0,0,0,0,0,5.5075,5.5082,5.5457,5.5459,5.5461,5.5628,5.563,5.5633,5.5569,5.5564,5.556,5.5555,5.5731,5.5741,5.5751,0,0,0,0,0,0,0,0,0,0,0,0,0,5.5243,5.5085,5.5457,5.545,5.5451,5.5628,5.563,5.5633,5.557,5.5564,5.5558,5.5553,5.5728,5.574,5.5752,5.5947,0,0,5.5791,5.5796,0,0,0,0,0,0,0,0,5.5234,5.5257,5.5449,5.5451,5.5452,5.5571,5.556,5.5738,5.5572,5.5525,5.5557,5.555,5.5684,5.57,5.5745,5.5955,5.5963,5.5792,5.5799,5.5805,5.5808,0,0,0,0,0,0,0,5.5222,5.525,5.5525,5.5451,5.5454,5.5438,5.5455,5.5594,5.5635,5.5528,5.5524,5.5545,5.5684,5.5733,5.5749,5.5965,5.5791,5.5802,5.581,5.5815,5.634,5.6346,0,0,0,0,0,0,5.521,5.524,5.5519,5.553,5.5326,5.545,5.5469,5.5539,5.5634,5.5643,5.555,5.5542,5.5715,5.5734,5.5755,5.5986,5.5804,5.5816,5.5823,5.6333,5.6341,5.6348,0,0,0,0,0,0,5.5202,5.5235,5.5512,5.5384,5.5418,5.5462,5.5541,5.5545,5.5594,5.565,5.5657,5.5592,5.5711,5.5737,5.5899,5.5991,5.5822,5.5833,5.6326,5.6336,5.6345,5.6452,0,0,0,0,0,0,5.5191,5.5233,5.5307,5.5386,5.5425,5.5654,5.5547,5.5553,5.5616,5.5606,5.5692,5.57,5.5708,5.588,5.5911,5.6006,5.5843,5.6318,5.633,5.6342,5.644,5.6464,5.6484,0,0,0,0,0,5.5178,5.5332,5.5311,5.5345,5.5519,5.5659,5.5682,5.5687,5.5623,5.5698,5.5734,5.5698,5.5977,5.5897,5.5931,5.6031,5.6312,5.6327,5.6341,5.643,5.6459,5.6484,0,0,0,0,0,0,5.5264,5.5342,5.532,5.5505,5.5576,5.5648,5.5743,5.5718,5.581,5.5797,5.5801,5.582,5.5986,5.6025,5.5935,5.6223,5.6135,5.6157,5.6191,5.6219,5.6241,5.6227,5.5853,0,0,0,0,0,5.5304,5.5411,5.5474,5.563,5.5667,5.5699,5.576,5.5758,5.5832,5.5862,5.591,5.5983,5.6087,5.6155,5.6254,5.6446,5.6462,5.6531,5.6553,5.6571,5.659,5.6691,5.6721,5.6396,5.6396,5.6395,0,0,5.5389,5.5445,5.5512,5.5649,5.5704,5.5814,5.5725,5.5846,5.5927,5.5881,5.6035,5.6073,5.6155,5.6331,5.6411,5.6369,5.6683,5.659,5.6603,5.6612,5.6709,5.674,5.6767,5.6405,5.6404,5.6402,0,0,5.5598,5.5652,5.5787,5.5843,5.5927,5.5947,5.5979,5.6056,5.6078,5.6233,5.62,5.6297,5.6477,5.6535,5.6589,5.6819,5.6788,5.6851,5.6966,5.7065,5.709,5.7113,5.7193,5.7221,5.687,5.687,5.687,0,5.5693,5.5857,5.586,5.5983,5.6043,5.6005,5.6141,5.6195,5.6308,5.635,5.6301,5.6523,5.6576,5.6764,5.682,5.6866,5.6901,5.6841,5.7086,5.7109,5.713,5.7206,5.7236,5.6877,5.6876,5.6876,5.6875,0,5.5968,5.6083,5.6182,5.6289,5.636,5.649,5.6511,5.6583,5.6575,5.66,5.6757,5.6819,5.6928,5.6973,5.6967,5.716,5.713,5.7084,5.6995,5.7168,5.7239,5.7269,5.6887,5.6885,5.6883,5.6881,0,0,5.6237,5.6343,5.6379,5.6426,5.6514,5.6603,5.673,5.6835,5.6896,5.6975,5.708,5.7232,5.7188,5.7249,5.7249,5.7336,5.7511,5.7279,5.7281,5.7317,5.7724,5.7757,5.7791,5.7491,5.7497,5.7502,5.7717,0,5.6452,5.6673,5.6678,5.6881,5.6985,5.695,5.706,5.7126,5.7152,5.7245,5.7274,5.738,5.7317,5.7353,5.7437,5.7472,5.7592,5.7457,5.7588,5.7592,5.7566,5.7828,5.7864,5.8064,5.7745,5.775,5.7753,0,5.6732,5.6817,5.703,5.7101,5.7145,5.7244,5.734,5.7429,5.7502,5.7515,5.7582,5.7569,5.7697,5.7605,5.778,5.7688,5.7742,5.7767,5.7775,5.7786,5.7682,5.7844,5.8128,5.8157,5.7797,5.7794,5.7791,0,5.6903,5.7072,5.722,5.7262,5.7349,5.7419,5.7459,5.7526,5.7589,5.7673,5.7713,5.7812,5.7866,5.7942,5.7955,5.7887,5.813,5.804,5.8143,5.8143,5.8195,5.8191,5.8489,5.8234,5.8233,5.8233,5.8232,0,5.7141,5.7272,5.7298,5.7389,5.7534,5.7538,5.7681,5.7716,5.7776,5.7872,5.7849,5.794,5.7952,5.8046,5.8057,5.8199,5.8225,5.8238,5.8239,5.8239,5.8237,5.8273,5.8258,5.8241,5.8239,5.8237,5.8236,0,5.7357,5.738,5.7538,5.7607,5.7628,5.7731,5.779,5.7876,5.79,5.8022,5.8051,5.8088,5.8197,5.8217,5.8347,5.8354,5.8523,5.8511,5.8498,5.8495,5.8596,5.8586,5.8926,5.897,5.8689,5.8691,5.8693,0,5.7506,5.7606,5.7685,5.7747,5.779,5.7891,5.7954,5.7962,5.8028,5.8118,5.8194,5.83,5.8385,5.8561,5.8599,5.8697,5.8686,5.8799,5.8701,5.8697,5.8685,5.8677,5.8686,5.8817,5.882,5.8823,5.8825,0,5.7768,5.7774,5.7865,5.796,5.8036,5.8112,5.8183,5.8236,5.8253,5.8329,5.8439,5.8505,5.8636,5.8741,5.8838,5.8879,5.8855,5.8855,5.8884,5.8884,5.887,5.8876,5.8546,5.8847,5.8845,5.8843,5.8842,5.8841,5.7954,5.8039,5.8107,5.8209,5.8263,5.833,5.8414,5.8447,5.8539,5.8645,5.8645,5.8765,5.8834,5.8962,5.9008,5.9102,5.9066,5.9109,5.9119,5.9128,5.9136,5.8857,5.912,5.912,5.9119,5.9119,5.9118,0,5.8212,5.8253,5.8347,5.8447,5.8527,5.8496,5.8573,5.8642,5.8748,5.8814,5.8897,5.9023,5.9124,5.917,5.9269,5.9336,5.9327,5.9361,5.9355,5.9364,5.9164,5.9128,5.9366,5.9366,5.9366,5.9366,5.9366,5.9366,5.8355,5.8497,5.8511,5.8679,5.8719,5.8836,5.8882,5.8943,5.8996,5.9137,5.922,5.9249,5.9306,5.9409,5.95,5.9511,5.9547,5.9587,5.9592,5.9404,5.9379,5.9355,5.9321,5.9595,5.9596,5.9784,5.9786,5.9787]},{"header":{"parameterUnit":"m.s-1","parameterCategory":1,"la1":30.2991,"la2":30.254,"lo1":-89.0895,"lo2":-89.0444,"dy":0.0017,"dx":0.0017,"nx":28,"ny":28,"refTime":"2023-07-21T03:00:00:Z","depth":0,"parameterNumber":3,"parameterNumberName":"V-component_of_WINDS"},"data":[0,0,0,0,0,0,0,0,0,0,0,0,0,0,0,0,0,0,0,0,0,0,0,0,0,0,0,0,0,0,0,0,0,0,0,0,0,0,0,0,0,0,0,0,0,0,0,0,0,0,0,0,0,0,0,0,0,0,1.6504,1.6505,0,1.6571,1.6571,1.6572,1.6561,1.656,1.6559,1.6558,1.6625,1.6628,1.6631,0,0,0,0,0,0,0,0,0,0,0,0,0,1.6366,1.6369,1.6504,1.6505,1.6506,1.6571,1.6571,1.6572,1.6561,1.656,1.6559,1.6557,1.6625,1.6628,1.6631,0,0,0,0,0,0,0,0,0,0,0,0,0,1.6429,1.637,1.6504,1.6508,1.6509,1.657,1.6571,1.6573,1.6562,1.656,1.6558,1.6557,1.6623,1.6628,1.6632,1.6693,0,0,1.6645,1.6647,0,0,0,0,0,0,0,0,1.6425,1.6434,1.6507,1.6508,1.6509,1.6556,1.6548,1.6613,1.6562,1.6542,1.6558,1.6556,1.6604,1.6609,1.6626,1.6696,1.6699,1.6645,1.6648,1.665,1.6651,0,0,0,0,0,0,0,1.6421,1.6431,1.653,1.6508,1.6509,1.6506,1.6513,1.656,1.6582,1.6543,1.6543,1.6551,1.6604,1.6622,1.6627,1.67,1.6645,1.6649,1.6652,1.6653,1.6822,1.6824,0,0,0,0,0,0,1.6415,1.6427,1.6528,1.6532,1.6462,1.651,1.6518,1.6543,1.6581,1.6585,1.6552,1.655,1.6615,1.6622,1.663,1.6703,1.665,1.6654,1.6656,1.682,1.6823,1.6825,0,0,0,0,0,0,1.6413,1.6425,1.6526,1.648,1.6492,1.6514,1.6542,1.6545,1.6562,1.6588,1.6591,1.6566,1.6614,1.6624,1.6677,1.6705,1.6656,1.666,1.6818,1.6821,1.6824,1.6851,0,0,0,0,0,0,1.6409,1.6424,1.6448,1.648,1.6495,1.6573,1.6544,1.6547,1.657,1.6568,1.6602,1.6606,1.6613,1.6671,1.6681,1.671,1.6663,1.6816,1.6819,1.6823,1.6848,1.6854,1.686,0,0,0,0,0,1.6404,1.6453,1.6449,1.6461,1.6525,1.6574,1.6583,1.659,1.6572,1.6596,1.6612,1.6605,1.67,1.6676,1.6688,1.6719,1.6814,1.6818,1.6823,1.6845,1.6853,1.686,0,0,0,0,0,0,1.6423,1.6457,1.6453,1.6515,1.6542,1.6572,1.6603,1.6599,1.6632,1.6628,1.6636,1.6644,1.6698,1.6714,1.6686,1.6779,1.6754,1.6761,1.6767,1.6775,1.6781,1.6777,1.6667,0,0,0,0,0,1.6435,1.6472,1.6499,1.6551,1.6564,1.6581,1.6603,1.6606,1.6635,1.6646,1.6666,1.6693,1.6729,1.6753,1.6788,1.6849,1.6856,1.6876,1.6882,1.6887,1.6893,1.6926,1.6935,1.6839,1.6839,1.6839,0,0,1.6459,1.6482,1.6505,1.6555,1.6577,1.6614,1.6591,1.6633,1.666,1.6652,1.6704,1.6719,1.675,1.6808,1.6834,1.6823,1.6921,1.6893,1.6897,1.69,1.6931,1.694,1.6949,1.6842,1.6841,1.6841,0,0,1.6522,1.6543,1.6588,1.661,1.6642,1.6653,1.6663,1.6694,1.6704,1.6756,1.675,1.6783,1.6845,1.6867,1.6887,1.6956,1.695,1.6967,1.7,1.7032,1.7039,1.7046,1.707,1.7079,1.6973,1.6973,1.6973,0,1.6548,1.6605,1.6612,1.6653,1.6675,1.6669,1.6714,1.6734,1.6776,1.6791,1.6777,1.6854,1.6875,1.6937,1.6953,1.6969,1.6981,1.6964,1.7038,1.7044,1.7051,1.7074,1.7083,1.6975,1.6974,1.6974,1.6974,0,1.6635,1.6675,1.6707,1.6747,1.6772,1.6815,1.6828,1.6852,1.6853,1.6865,1.6917,1.6941,1.698,1.6994,1.6996,1.7056,1.7048,1.7036,1.7011,1.7062,1.7084,1.7093,1.6977,1.6976,1.6976,1.6975,0,0,1.6714,1.6756,1.6768,1.6786,1.682,1.6851,1.6892,1.693,1.6951,1.6979,1.7015,1.7066,1.7055,1.7077,1.708,1.7108,1.716,1.7092,1.7093,1.7104,1.7228,1.7237,1.7247,1.7156,1.7158,1.7159,1.7225,0,1.6781,1.6856,1.6862,1.6929,1.6965,1.6958,1.6995,1.7019,1.7031,1.7062,1.7075,1.7111,1.7094,1.7107,1.7134,1.7148,1.7185,1.7143,1.7188,1.719,1.7182,1.7259,1.7269,1.733,1.7234,1.7235,1.7236,0,1.6869,1.69,1.697,1.6998,1.7013,1.7046,1.7081,1.7111,1.7138,1.7144,1.7168,1.7167,1.7209,1.7182,1.724,1.7211,1.723,1.7239,1.7242,1.7247,1.7217,1.7266,1.735,1.7359,1.725,1.7249,1.7248,0,1.6919,1.6978,1.7028,1.7043,1.7077,1.71,1.7115,1.714,1.7162,1.7192,1.7206,1.724,1.7259,1.7285,1.7293,1.7272,1.735,1.7324,1.7356,1.7356,1.7374,1.7373,1.7462,1.7385,1.7385,1.7385,1.7384,0,1.6993,1.7037,1.7051,1.7081,1.7129,1.7135,1.7182,1.7196,1.7218,1.7251,1.7247,1.7277,1.7285,1.7317,1.7323,1.737,1.7378,1.7384,1.7385,1.7385,1.7384,1.7398,1.7394,1.7387,1.7386,1.7386,1.7386,0,1.7058,1.707,1.7123,1.715,1.7158,1.7192,1.7215,1.7244,1.7254,1.7295,1.7305,1.7321,1.7358,1.7368,1.7412,1.7416,1.7471,1.7468,1.7462,1.7462,1.7494,1.749,1.7595,1.7609,1.7523,1.7523,1.7524,0,1.7105,1.7138,1.7169,1.719,1.7206,1.7241,1.7263,1.7269,1.7292,1.7324,1.7349,1.7385,1.7415,1.7474,1.7489,1.7522,1.752,1.7555,1.7525,1.7523,1.7521,1.7519,1.7522,1.756,1.7561,1.7562,1.7563,0,1.7187,1.719,1.7222,1.7256,1.7282,1.7309,1.7335,1.7352,1.7362,1.7388,1.7425,1.7448,1.7492,1.7528,1.7562,1.7576,1.7571,1.7571,1.7581,1.7581,1.7576,1.7579,1.7477,1.7569,1.7569,1.7568,1.7568,1.7568,1.7244,1.7273,1.7298,1.7334,1.7353,1.7377,1.7405,1.7418,1.745,1.7487,1.7488,1.7529,1.7553,1.7598,1.7614,1.7645,1.7635,1.7648,1.7652,1.7655,1.7658,1.757,1.7651,1.7651,1.7651,1.7651,1.7651,0,1.7325,1.7341,1.7373,1.7409,1.7437,1.7429,1.7456,1.748,1.7515,1.7539,1.7567,1.761,1.7644,1.7661,1.7695,1.7717,1.7715,1.7725,1.7724,1.7727,1.7665,1.7654,1.7726,1.7726,1.7726,1.7726,1.7726,1.7726,1.7371,1.7419,1.7425,1.7482,1.7497,1.7537,1.7553,1.7575,1.7593,1.7641,1.7669,1.768,1.7701,1.7736,1.7766,1.777,1.7783,1.7794,1.7797,1.7739,1.7732,1.7724,1.7714,1.7797,1.7797,1.7857,1.7857,1.7857]}]]